Radiation Dose at Monitoring Post of Fukushima Daini Nuclear Power Station
Date,Time,MP-1(microSv/h),MP-2(microSv/h),MP-3(microSv/h),MP-4(microSv/h),MP-5(microSv/h),MP-6(microSv/h),MP-7(microSv/h),Wind Direction,Wind Velocity(m/s),Rain
2017/08/17,00:00,0.339,0.209,0.337,0.317,0.311,0.168,0.107,north-northeast,3.6,Yes
2017/08/17,00:10,0.337,0.209,0.338,0.314,0.311,0.167,0.107,north-northeast,3.3,Yes
2017/08/17,00:20,0.337,0.210,0.340,0.315,0.316,0.167,0.106,north-northeast,3.4,Yes
2017/08/17,00:30,0.339,0.210,0.337,0.317,0.311,0.168,0.108,north-northeast,3.4,Yes
2017/08/17,00:40,0.337,0.210,0.338,0.314,0.313,0.166,0.108,north-northeast,3.4,Yes
2017/08/17,00:50,0.338,0.209,0.337,0.317,0.314,0.167,0.106,north,2.2,Yes
2017/08/17,01:00,0.339,0.209,0.337,0.315,0.310,0.167,0.107,north,3.0,Yes
2017/08/17,01:10,0.336,0.210,0.338,0.314,0.313,0.165,0.106,north,2.5,Yes
2017/08/17,01:20,0.339,0.207,0.336,0.316,0.311,0.166,0.107,north,3.7,Yes
2017/08/17,01:30,0.337,0.210,0.337,0.312,0.309,0.166,0.107,north,3.1,Yes
2017/08/17,01:40,0.337,0.208,0.339,0.317,0.313,0.166,0.105,north,3.1,Yes
2017/08/17,01:50,0.339,0.208,0.336,0.316,0.310,0.168,0.107,north,3.1,Yes
2017/08/17,02:00,0.334,0.209,0.339,0.312,0.311,0.166,0.107,north,3.9,Yes
2017/08/17,02:10,0.338,0.208,0.335,0.315,0.313,0.166,0.107,north-northwest,3.9,Yes
2017/08/17,02:20,0.337,0.208,0.337,0.314,0.308,0.166,0.106,north-northwest,3.9,Yes
2017/08/17,02:30,0.334,0.208,0.337,0.312,0.312,0.166,0.106,north-northwest,4.3,Yes
2017/08/17,02:40,0.336,0.208,0.333,0.313,0.310,0.166,0.107,north-northwest,3.9,Yes
2017/08/17,02:50,0.335,0.209,0.336,0.311,0.309,0.167,0.106,north,5.3,Yes
2017/08/17,03:00,0.336,0.208,0.334,0.313,0.312,0.165,0.106,north,6.1,Yes
2017/08/17,03:10,0.337,0.209,0.333,0.312,0.309,0.166,0.108,north,5.5,Yes
2017/08/17,03:20,0.334,0.209,0.335,0.309,0.310,0.165,0.105,north,4.4,Yes
2017/08/17,03:30,0.337,0.207,0.331,0.312,0.311,0.165,0.107,north,4.5,Yes
2017/08/17,03:40,0.335,0.208,0.336,0.310,0.309,0.166,0.108,north,5.0,Yes
2017/08/17,03:50,0.336,0.208,0.333,0.313,0.313,0.165,0.106,north,4.6,Yes
2017/08/17,04:00,0.338,0.206,0.335,0.314,0.311,0.165,0.106,north,4.7,Yes
2017/08/17,04:10,0.334,0.208,0.336,0.310,0.310,0.166,0.105,north-northwest,4.8,No
2017/08/17,04:20,0.337,0.207,0.332,0.315,0.312,0.164,0.106,north,4.8,No
2017/08/17,04:30,0.337,0.208,0.337,0.314,0.309,0.164,0.106,north-northwest,4.5,No
2017/08/17,04:40,0.335,0.206,0.336,0.313,0.310,0.165,0.104,north-northwest,5.0,No
2017/08/17,04:50,0.336,0.207,0.335,0.315,0.312,0.164,0.105,north-northwest,4.2,No
2017/08/17,05:00,0.335,0.207,0.336,0.312,0.308,0.165,0.105,north-northwest,4.9,No
2017/08/17,05:10,0.335,0.207,0.334,0.313,0.313,0.164,0.104,north-northwest,4.3,No
2017/08/17,05:20,0.337,0.208,0.337,0.313,0.310,0.164,0.105,north-northwest,4.7,No
2017/08/17,05:30,0.333,0.206,0.336,0.312,0.310,0.164,0.105,north-northwest,5.7,No
2017/08/17,05:40,0.337,0.206,0.336,0.316,0.313,0.165,0.105,north-northwest,4.7,No
2017/08/17,05:50,0.337,0.207,0.337,0.314,0.309,0.163,0.104,north-northwest,5.3,No
2017/08/17,06:00,0.334,0.206,0.336,0.313,0.310,0.165,0.105,north-northwest,5.4,No
2017/08/17,06:10,0.337,0.207,0.337,0.315,0.312,0.165,0.105,north-northwest,4.7,No
2017/08/17,06:20,0.337,0.207,0.336,0.313,0.308,0.163,0.104,north-northwest,4.9,No
2017/08/17,06:30,0.334,0.205,0.334,0.315,0.311,0.165,0.104,north-northwest,5.2,No
2017/08/17,06:40,0.339,0.207,0.338,0.316,0.312,0.164,0.105,north-northwest,4.5,No
2017/08/17,06:50,0.338,0.206,0.337,0.312,0.308,0.164,0.105,north-northwest,4.7,No
2017/08/17,07:00,0.334,0.205,0.335,0.314,0.311,0.164,0.105,north,4.0,No
2017/08/17,07:10,0.338,0.209,0.338,0.317,0.311,0.165,0.105,north-northwest,3.8,No
2017/08/17,07:20,0.338,0.207,0.338,0.312,0.310,0.164,0.105,north-northwest,3.5,No
2017/08/17,07:30,0.334,0.206,0.335,0.315,0.308,0.164,0.105,north-northwest,3.5,No
2017/08/17,07:40,0.336,0.205,0.338,0.317,0.311,0.164,0.104,north-northwest,3.6,No
2017/08/17,07:50,0.339,0.209,0.340,0.316,0.312,0.166,0.104,northwest,2.1,No
2017/08/17,08:00,0.337,0.208,0.336,0.313,0.310,0.164,0.104,north-northwest,2.5,No
2017/08/17,08:10,0.334,0.207,0.335,0.314,0.308,0.164,0.106,north,3.0,Yes
2017/08/17,08:20,0.340,0.206,0.340,0.317,0.310,0.164,0.105,north-northwest,3.0,Yes
2017/08/17,08:30,0.340,0.209,0.339,0.315,0.314,0.166,0.105,north,3.3,No
2017/08/17,08:40,0.338,0.208,0.335,0.314,0.310,0.165,0.103,north,2.0,No
2017/08/17,08:50,0.336,0.207,0.340,0.317,0.309,0.165,0.105,north,2.9,No
2017/08/17,09:00,0.340,0.206,0.342,0.317,0.313,0.165,0.102,north,2.8,No
2017/08/17,09:10,0.338,0.209,0.336,0.313,0.314,0.166,0.104,north-northwest,2.6,No
2017/08/17,09:20,0.336,0.207,0.336,0.312,0.310,0.167,0.104,north,2.1,No
2017/08/17,09:30,0.335,0.206,0.341,0.318,0.308,0.165,0.103,north-northwest,2.5,No
2017/08/17,09:40,0.341,0.207,0.339,0.315,0.309,0.165,0.103,north-northwest,2.7,No
2017/08/17,09:50,0.339,0.206,0.337,0.315,0.308,0.165,0.103,north,2.5,No
2017/08/17,10:00,0.338,0.206,0.335,0.314,0.309,0.165,0.103,north-northeast,2.5,No
2017/08/17,10:10,0.334,0.207,0.334,0.311,0.312,0.166,0.104,north-northeast,2.8,No
2017/08/17,10:20,0.335,0.207,0.339,0.317,0.315,0.167,0.104,north,3.0,No
2017/08/17,10:30,0.334,0.207,0.342,0.319,0.315,0.166,0.104,north-northeast,3.6,No
2017/08/17,10:40,0.335,0.208,0.340,0.318,0.313,0.167,0.104,northeast,2.8,No
2017/08/17,10:50,0.334,0.208,0.338,0.316,0.313,0.165,0.104,north-northeast,3.4,No
2017/08/17,11:00,0.336,0.208,0.339,0.316,0.312,0.166,0.105,north-northeast,3.8,No
2017/08/17,11:10,0.336,0.208,0.338,0.317,0.313,0.166,0.104,northeast,3.9,No
2017/08/17,11:20,0.336,0.208,0.338,0.318,0.312,0.166,0.105,north-northeast,3.4,No
2017/08/17,11:30,0.336,0.208,0.339,0.317,0.311,0.167,0.104,northeast,3.8,No
2017/08/17,11:40,0.338,0.209,0.337,0.318,0.312,0.167,0.104,north-northeast,4.1,No
2017/08/17,11:50,0.337,0.209,0.338,0.317,0.314,0.167,0.105,north-northeast,3.6,No
2017/08/17,12:00,0.336,0.209,0.337,0.317,0.312,0.167,0.106,north-northeast,4.4,No
2017/08/17,12:10,0.338,0.210,0.339,0.317,0.313,0.167,0.105,north-northeast,3.2,No
2017/08/17,12:20,0.337,0.209,0.338,0.318,0.313,0.167,0.105,north-northeast,3.1,No
2017/08/17,12:30,0.337,0.209,0.338,0.315,0.313,0.166,0.106,north-northeast,3.1,No
2017/08/17,12:40,0.338,0.209,0.338,0.317,0.313,0.166,0.106,north-northeast,3.6,No
2017/08/17,12:50,0.342,0.209,0.337,0.317,0.311,0.168,0.105,north-northeast,4.5,No
2017/08/17,13:00,0.343,0.208,0.338,0.318,0.314,0.166,0.105,north-northeast,3.3,No
2017/08/17,13:10,0.341,0.208,0.341,0.316,0.312,0.166,0.105,north-northeast,3.6,No
2017/08/17,13:20,0.339,0.208,0.344,0.317,0.312,0.166,0.105,north-northeast,3.2,No
2017/08/17,13:30,0.337,0.207,0.341,0.317,0.311,0.166,0.104,north-northeast,4.0,No
2017/08/17,13:40,0.340,0.207,0.341,0.316,0.312,0.167,0.104,north-northeast,3.4,No
2017/08/17,13:50,0.343,0.208,0.338,0.317,0.311,0.167,0.103,north-northeast,3.6,No
2017/08/17,14:00,0.342,0.207,0.338,0.322,0.311,0.166,0.104,northeast,2.9,No
2017/08/17,14:10,0.340,0.208,0.340,0.320,0.314,0.167,0.103,north-northeast,3.0,No
2017/08/17,14:20,0.338,0.208,0.337,0.319,0.312,0.167,0.104,northeast,2.8,No
2017/08/17,14:30,0.337,0.207,0.338,0.320,0.312,0.168,0.103,northeast,2.5,No
2017/08/17,14:40,0.340,0.209,0.340,0.317,0.311,0.167,0.103,north-northeast,2.4,No
2017/08/17,14:50,0.342,0.208,0.344,0.317,0.313,0.168,0.103,north-northeast,2.4,No
2017/08/17,15:00,0.340,0.211,0.343,0.316,0.312,0.167,0.105,northeast,1.5,No
2017/08/17,15:10,0.339,0.212,0.343,0.318,0.312,0.167,0.105,north-northeast,2.4,No
2017/08/17,15:20,0.336,0.210,0.341,0.322,0.313,0.167,0.105,northeast,2.5,No
2017/08/17,15:30,0.340,0.209,0.338,0.321,0.313,0.167,0.105,east-northeast,1.6,No
2017/08/17,15:40,0.343,0.210,0.338,0.320,0.315,0.169,0.103,northeast,2.2,No
2017/08/17,15:50,0.341,0.209,0.338,0.318,0.314,0.168,0.103,north-northeast,1.5,No
2017/08/17,16:00,0.338,0.207,0.342,0.317,0.313,0.167,0.102,east-northeast,1.9,No
2017/08/17,16:10,0.338,0.210,0.344,0.318,0.312,0.168,0.102,north-northeast,1.6,No
2017/08/17,16:20,0.343,0.211,0.342,0.322,0.312,0.167,0.103,east-northeast,1.1,No
2017/08/17,16:30,0.344,0.210,0.340,0.322,0.313,0.167,0.104,east-northeast,1.9,No
2017/08/17,16:40,0.342,0.208,0.339,0.319,0.319,0.169,0.104,east-northeast,1.3,No
2017/08/17,16:50,0.340,0.208,0.343,0.317,0.317,0.169,0.104,east-northeast,1.3,No
2017/08/17,17:00,0.340,0.210,0.345,0.320,0.315,0.169,0.104,north-northeast,1.6,No
2017/08/17,17:10,0.343,0.211,0.342,0.320,0.313,0.167,0.105,northeast,1.6,No
2017/08/17,17:20,0.342,0.209,0.340,0.321,0.312,0.168,0.105,northeast,1.2,No
2017/08/17,17:30,0.339,0.209,0.342,0.319,0.318,0.168,0.105,north-northeast,1.6,No
2017/08/17,17:40,0.340,0.211,0.344,0.321,0.316,0.168,0.105,north-northeast,1.1,No
2017/08/17,17:50,0.344,0.212,0.343,0.322,0.313,0.167,0.106,north-northeast,1.2,No
2017/08/17,18:00,0.342,0.209,0.340,0.320,0.311,0.167,0.106,north-northeast,1.4,No
2017/08/17,18:10,0.339,0.209,0.343,0.318,0.317,0.169,0.105,north-northeast,1.1,No
2017/08/17,18:20,0.341,0.211,0.343,0.320,0.316,0.169,0.106,north-northeast,1.2,No
2017/08/17,18:30,0.343,0.210,0.341,0.323,0.312,0.167,0.105,north,1.4,No
2017/08/17,18:40,0.339,0.209,0.341,0.320,0.314,0.168,0.105,north,1.6,No
2017/08/17,18:50,0.338,0.211,0.344,0.319,0.316,0.167,0.103,north,1.8,No
2017/08/17,19:00,0.344,0.210,0.343,0.323,0.313,0.168,0.106,north,1.6,No
2017/08/17,19:10,0.342,0.209,0.340,0.321,0.312,0.167,0.105,northeast,0.8,No
2017/08/17,19:20,0.338,0.209,0.344,0.318,0.316,0.167,0.104,north-northeast,1.4,No
2017/08/17,19:30,0.341,0.211,0.343,0.322,0.315,0.168,0.106,north,2.1,No
2017/08/17,19:40,0.344,0.209,0.339,0.322,0.311,0.169,0.106,north,3.0,No
2017/08/17,19:50,0.340,0.211,0.344,0.318,0.315,0.167,0.105,north,2.7,No
2017/08/17,20:00,0.340,0.210,0.343,0.321,0.315,0.168,0.106,north,2.2,No
2017/08/17,20:10,0.345,0.210,0.341,0.321,0.313,0.166,0.106,north,2.3,No
2017/08/17,20:20,0.339,0.210,0.342,0.319,0.317,0.167,0.105,north,2.1,No
2017/08/17,20:30,0.340,0.210,0.345,0.320,0.314,0.170,0.105,north,2.9,No
2017/08/17,20:40,0.343,0.208,0.342,0.322,0.312,0.168,0.105,north,3.5,No
2017/08/17,20:50,0.341,0.210,0.342,0.319,0.316,0.168,0.105,north,3.1,No
2017/08/17,21:00,0.339,0.211,0.345,0.320,0.315,0.168,0.106,north,3.3,No
2017/08/17,21:10,0.344,0.209,0.343,0.323,0.311,0.167,0.106,north,3.2,No
2017/08/17,21:20,0.343,0.210,0.342,0.321,0.315,0.168,0.105,north,2.2,No
2017/08/17,21:30,0.340,0.211,0.345,0.317,0.316,0.168,0.105,north,1.9,No
2017/08/17,21:40,0.341,0.209,0.344,0.323,0.314,0.168,0.105,north,2.3,No
2017/08/17,21:50,0.342,0.211,0.340,0.322,0.315,0.167,0.106,north,1.9,No
2017/08/17,22:00,0.340,0.211,0.346,0.318,0.316,0.169,0.106,north,2.2,No
2017/08/17,22:10,0.341,0.209,0.345,0.324,0.312,0.167,0.107,north,2.2,No
2017/08/17,22:20,0.344,0.211,0.340,0.323,0.314,0.168,0.106,north,1.9,No
2017/08/17,22:30,0.341,0.212,0.346,0.320,0.316,0.169,0.105,north,2.3,No
2017/08/17,22:40,0.339,0.209,0.342,0.321,0.312,0.167,0.107,north,2.7,No
2017/08/17,22:50,0.345,0.212,0.342,0.322,0.315,0.168,0.106,north,2.1,No
2017/08/17,23:00,0.342,0.210,0.344,0.319,0.318,0.169,0.106,north,1.4,No
2017/08/17,23:10,0.339,0.211,0.343,0.325,0.314,0.167,0.106,north,1.2,No
2017/08/17,23:20,0.346,0.212,0.343,0.325,0.317,0.169,0.106,north,1.1,No
2017/08/17,23:30,0.341,0.209,0.345,0.320,0.317,0.169,0.106,north-northwest,0.9,No
2017/08/17,23:40,0.342,0.211,0.343,0.324,0.314,0.168,0.107,north-northwest,1.4,No
2017/08/17,23:50,0.345,0.212,0.343,0.322,0.317,0.168,0.106,north,1.1,No
